Location: Newark
(44.6028°N, 124.0883°W)
Time: 15:00:16
(UTC+00:00)

A-11 Canister half - Pass Details

Date: 26 October 2019
Orbit: 1514 x 1686 km, 47.2° (Epoch: 13 November)

Event Time Altitude Azimuth Distance (km) Brightness Sun altitude
Exits shadow 09:38:19 29° 73° (ENE) 2,621 10.3 -51.6°
Drops below altitude 10° 09:42:18 10° 71° (ENE) 3,809 11.4 -51.1°
Sets 09:45:20 0° 71° (ENE) 4,773 12.1 -50.8°
